This is the latest recevied weather packets stored in our database for station/object N2RFA-13. If no packets are shown the sender has not sent any weather packets the latest 10 day(s).
| Time | Temp. | Humidity | Pressure | Rain* | Wind** | Luminosity | Snow |
|---|---|---|---|---|---|---|---|
| 1777886127 | 2.78° C | 85% | 1014.9 hPa | 0 mm | - | - | - |
| 1777883426 | 3.33° C | 85% | 1014.9 hPa | 0 mm | - | - | - |
| 1777882528 | 3.33° C | 85% | 1014.8 hPa | 0 mm | - | - | - |
| 1777880732 | 2.78° C | 84% | 1014.7 hPa | 0 mm | - | - | - |
| 1777879828 | 2.78° C | 84% | 1014.7 hPa | 0 mm | - | - | - |
| 1777878922 | 2.78° C | 84% | 1014.6 hPa | 0 mm | - | - | - |
| 1777878021 | 2.78° C | 83% | 1014.5 hPa | 0 mm | - | - | - |
| 1777876221 | 2.78° C | 82% | 1014.5 hPa | 0 mm | - | - | - |
| 1777874417 | 2.78° C | 81% | 1014.5 hPa | 0 mm | - | - | - |
| 1777869910 | 3.33° C | 79% | 1014.3 hPa | 0 mm | - | - | - |
| 1777867206 | 3.89° C | 77% | 1013.8 hPa | 0 mm | - | - | - |
| 1777850145 | 12.78° C | 40% | 1012.1 hPa | 0 mm | - | - | - |
| 1777849248 | 12.78° C | 39% | 1011.9 hPa | 0 mm | - | - | - |
| 1777846552 | 13.33° C | 35% | 1011.7 hPa | 0 mm | - | - | - |
| 1777844743 | 13.89° C | 35% | 1011.7 hPa | 0 mm | - | - | - |
| 1777842941 | 13.33° C | 33% | 1011.5 hPa | 0 mm | - | - | - |
| 1777838438 | 13.33° C | 34% | 1012 hPa | 0 mm | - | - | - |
| 1777834839 | 13.33° C | 36% | 1012.4 hPa | 0 mm | - | - | - |
| 1777833038 | 13.33° C | 39% | 1012.5 hPa | 0 mm | - | - | - |
| 1777827625 | 11.67° C | 42% | 1013.1 hPa | 0 mm | - | - | - |
| 1777824923 | 11.11° C | 44% | 1013.5 hPa | 0 mm | - | - | - |
| 1777823137 | 11.11° C | 47% | 1013.6 hPa | 0 mm | - | - | - |
| 1777821315 | 10.56° C | 44% | 1013.6 hPa | 0 mm | - | - | - |
| 1777818611 | 11.11° C | 45% | 1013.5 hPa | 0 mm | - | - | - |
| 1777811458 | 7.78° C | 60% | 1013.6 hPa | 0 mm | - | - | - |
* Rain latest hour (hover to see other rain measurements)
** Current wind speed in m/s (hover to see current wind gust speed)